Wind_Speed
14 14 15 15 15 14 13 13 12 11 11 12 12 11 10 9 9 8 9 10 9 8 10 12 13 11 11 10 11 11 10 9 6 6 7 7 8 8 8 7 7 7 6 6 6 5 5 5 5 5 6 5 5 6 6 5 4 3 2 2 3 4 5 4 4 3 5 7 7 7 7 6 6 7 6 5 4 4 4 4 5 5 6 6 6
13 13 14 14 14 13 12 12 12 12 13 13 12 11 8 8 8 8 9 9 7 7 8 12 14 12 10 10 11 10 10 10 7 6 6 6 7 7 7 7 6 6 6 6 5 5 5 5 5 5 6 6 6 6 6 6 5 4 4 4 4 5 5 5 4 4 6 7 7 7 7 6 6 6 6 5 5 5 5 5 5 6 6 6 6
13 12 14 15 14 14 13 13 12 13 14 13 11 9 7 7 7 8 9 8 8 8 7 11 15 13 12 11 10 9 9 10 8 6 6 6 6 6 7 7 6 5 5 5 5 5 5 4 5 5 5 5 6 6 6 6 5 5 5 5 4 4 5 5 5 5 6 7 7 7 6 6 6 6 6 6 6 6 7 7 6 6 6 6 7
12 13 15 16 15 14 14 12 13 14 14 13 11 9 7 6 7 8 10 9 9 9 8 9 13 13 14 13 10 9 10 11 9 8 6 5 5 5 6 7 6 5 5 4 4 4 5 5 5 5 5 6 6 6 5 5 5 6 6 5 4 5 5 5 6 6 7 6 7 7 6 6 6 6 6 7 7 7 8 7 7 7 7 8 8
12 14 16 16 16 14 12 11 12 13 13 12 11 10 8 6 6 8 10 9 8 9 9 8 9 9 12 13 12 11 11 11 11 9 6 5 5 5 5 6 6 5 5 4 4 4 5 5 5 5 6 6 6 5 4 4 5 5 4 4 4 5 5 5 5 6 5 5 6 6 6 6 6 7 7 7 7 8 8 8 8 8 8 8 9
13 15 15 15 14 12 11 11 12 13 13 12 11 10 9 6 5 6 8 7 7 8 8 6 7 9 11 11 11 11 12 12 13 11 7 5 5 5 5 5 5 5 5 4 4 4 5 5 5 5 5 5 5 4 4 4 4 4 3 3 4 4 4 4 4 4 4 4 5 6 6 7 7 7 7 7 7 8 8 8 8 9 9 9 9
13 14 15 14 13 12 13 13 13 13 13 12 11 9 8 6 4 6 8 7 7 7 6 6 7 10 11 9 8 9 11 13 14 12 9 6 5 5 4 4 5 4 4 4 3 3 4 4 5 5 5 5 4 4 4 3 3 3 3 3 3 3 3 3 3 3 4 4 5 6 6 6 7 7 7 7 8 8 8 8 9 9 9 10 10
14 15 14 13 13 14 14 13 12 11 12 11 10 8 7 7 4 4 7 7 7 7 6 7 8 9 9 9 8 9 11 12 12 11 9 6 6 6 4 3 4 4 5 5 3 3 3 3 3 4 4 4 3 3 3 2 2 2 2 2 2 2 2 2 2 3 4 4 5 5 6 6 6 7 7 8 8 9 9 9 10 10 11 11 11
15 15 15 13 13 15 13 11 10 9 10 10 9 7 7 8 5 3 5 6 6 4 5 7 7 8 9 9 8 9 10 12 13 11 9 8 8 8 6 5 4 4 6 6 4 3 3 3 3 3 3 2 2 1 1 1 0 0 0 1 1 1 1 2 3 3 4 4 5 5 6 6 7 8 8 9 10 11 11 12 12 13 13 13 13
14 14 15 14 12 14 14 12 11 9 9 9 9 8 7 8 5 3 4 5 3 2 5 6 6 9 10 9 9 9 9 11 14 11 11 11 11 9 7 7 6 6 7 7 6 4 2 2 2 4 4 4 3 3 3 2 2 2 2 1 1 2 2 2 3 3 4 4 5 5 6 7 8 9 10 11 12 13 14 14 15 15 15 15 15
14 12 13 13 11 13 14 14 13 11 9 9 8 7 7 6 3 3 4 4 3 3 5 4 5 10 11 9 9 9 8 11 13 11 13 14 13 12 9 8 8 7 7 6 7 6 3 2 2 2 3 4 5 5 5 5 5 4 3 3 2 2 2 2 3 3 4 5 6 7 8 9 11 12 13 13 14 15 15 16 16 16 16 16 15
15 12 12 12 12 12 12 13 14 12 9 8 7 7 7 6 3 3 4 3 3 5 4 2 5 9 10 8 7 9 9 10 12 13 14 14 15 14 11 9 9 9 9 8 7 6 3 2 2 2 1 3 3 4 5 5 6 5 4 4 3 3 3 3 3 4 5 6 8 9 11 12 13 13 14 14 14 14 14 14 15 15 15 15 14
16 14 13 13 13 12 11 12 13 11 8 8 7 8 8 8 6 5 4 3 3 3 3 3 5 6 7 8 8 9 9 10 12 15 15 15 16 15 12 11 9 9 11 11 9 5 3 2 2 2 0 3 3 2 3 3 5 5 5 4 3 3 3 4 5 6 7 9 10 11 12 12 12 12 12 12 12 12 13 13 14 14 14 14 13
17 16 14 13 13 13 12 11 12 10 9 9 9 9 9 9 8 6 4 4 3 2 3 2 3 5 4 5 7 8 10 11 11 14 17 17 17 15 14 13 9 8 10 11 11 6 2 3 3 1 1 3 4 4 4 3 3 5 5 4 4 5 5 6 7 8 9 10 10 10 11 11 11 11 11 11 11 11 12 13 13 13 13 13 13
17 17 15 14 14 15 13 11 12 11 10 11 11 10 9 8 7 5 5 5 3 3 2 1 2 4 2 1 3 4 6 10 12 14 16 19 20 18 16 13 10 9 9 11 12 9 4 3 2 1 1 2 3 4 5 5 3 3 5 5 6 7 8 9 9 9 9 9 9 10 10 10 10 10 10 11 11 11 12 12 12 13 13 13 13
16 17 16 14 14 15 15 13 12 12 12 12 12 11 10 9 7 6 5 5 4 3 2 1 3 2 0 2 2 1 0 6 10 10 11 17 21 20 18 15 12 9 8 11 13 10 7 4 2 4 3 1 1 2 3 5 4 3 5 5 7 9 9 9 8 7 7 8 9 9 10 10 10 10 11 11 11 11 11 11 12 12 13 12 12
16 16 15 13 13 13 15 13 12 13 12 12 12 11 10 9 8 8 6 4 5 5 2 1 3 2 1 0 2 1 1 4 3 2 3 13 22 21 19 17 14 10 8 11 13 10 7 5 4 5 4 3 2 2 4 3 2 4 6 6 8 10 9 7 6 6 7 7 9 10 10 11 10 11 11 12 11 10 10 10 12 12 12 12 12
14 14 13 14 13 12 12 12 13 13 12 12 11 10 9 9 7 6 4 2 3 6 4 2 3 3 1 2 3 2 2 4 2 2 5 9 20 22 17 15 13 11 11 12 11 10 8 6 4 3 2 2 4 4 3 2 2 5 7 8 9 9 7 6 5 5 6 7 9 10 11 11 11 11 11 10 9 8 9 11 11 11 11 12 12
14 14 13 14 14 13 12 11 12 13 12 11 10 9 9 8 7 5 4 4 2 4 5 3 3 2 3 2 2 4 5 5 3 1 3 5 11 16 15 14 11 12 13 13 12 11 10 8 4 2 2 2 2 3 2 1 4 6 7 8 7 7 6 5 5 5 6 8 10 10 11 11 11 10 9 8 8 8 10 10 10 10 11 12 13
14 15 13 13 15 14 13 11 11 13 11 10 10 10 9 8 8 6 5 6 3 3 4 2 1 2 6 6 3 4 6 5 5 4 3 1 1 5 12 13 11 12 14 12 13 12 10 10 6 4 5 3 1 1 2 2 5 6 6 6 6 6 6 5 5 6 7 9 10 10 10 10 10 8 7 7 8 9 10 9 9 11 12 13 14
14 15 12 12 14 14 14 12 10 11 11 11 11 10 9 9 9 7 7 6 3 3 3 4 3 4 5 6 4 3 4 4 4 4 2 1 2 3 5 11 10 12 14 13 12 9 7 10 9 7 6 4 2 1 3 3 4 8 7 5 7 7 5 5 5 6 8 9 9 9 9 8 8 7 7 7 9 9 8 8 10 11 12 14 15
15 15 12 11 12 12 14 13 11 10 11 12 11 8 9 10 9 7 8 7 5 3 2 4 5 5 3 3 3 2 2 3 3 5 4 1 2 4 1 5 7 8 12 15 12 8 7 9 11 9 7 5 3 2 4 3 4 7 7 5 6 8 6 6 6 6 8 9 8 9 8 7 7 7 7 8 9 9 8 8 10 11 13 14 15
15 15 13 12 12 12 12 13 12 11 11 11 9 9 11 10 9 8 8 8 7 4 1 1 4 4 2 3 4 2 1 2 4 5 3 4 3 4 7 6 2 9 11 13 11 8 8 10 12 10 6 3 2 4 5 3 3 5 7 5 5 7 7 7 8 7 8 8 8 9 8 7 7 6 7 8 9 8 8 8 9 11 13 15 16
15 15 15 13 12 12 11 11 12 11 11 11 10 11 11 11 10 9 8 9 8 5 3 3 4 2 1 2 3 2 1 1 4 6 4 4 4 4 8 9 3 4 8 9 7 6 8 11 11 7 3 3 3 4 6 4 3 4 7 5 4 7 7 7 8 7 8 8 8 8 8 8 7 7 8 9 10 9 8 8 9 11 13 15 16
16 15 15 14 13 13 12 11 11 11 12 12 11 11 11 11 12 11 10 10 9 7 6 6 6 4 2 3 3 4 4 3 3 5 6 6 5 4 5 6 4 1 4 8 6 4 7 10 9 6 4 4 3 4 6 4 3 3 5 5 5 7 7 7 8 7 7 8 8 8 8 8 8 7 8 9 10 9 8 8 9 11 13 15 17
16 15 15 15 14 13 14 12 11 11 12 12 12 12 12 12 13 12 12 12 10 9 9 8 7 4 4 4 3 3 3 4 4 5 6 8 6 4 3 3 6 5 1 7 8 5 6 9 8 7 5 4 4 5 7 5 4 5 5 6 7 8 8 7 8 8 8 7 8 8 8 8 8 8 8 9 10 9 9 9 9 11 13 15 17
15 14 14 14 14 14 14 13 12 12 12 11 12 13 12 12 13 11 10 11 10 10 11 10 7 3 3 4 4 3 2 7 6 3 3 3 2 3 3 4 4 5 4 4 8 7 7 11 9 7 5 4 4 4 6 6 5 6 7 7 8 9 9 8 8 9 9 9 9 9 9 8 8 8 8 8 9 9 9 9 9 11 13 15 18
15 14 14 14 14 15 15 14 13 13 13 12 12 13 12 13 14 12 11 11 10 9 10 11 8 5 3 4 5 6 4 6 7 5 5 4 3 5 7 6 4 2 4 5 4 5 4 8 10 7 4 4 4 3 5 5 5 6 8 8 10 11 10 9 9 10 11 11 10 9 9 9 8 8 9 8 9 9 10 10 10 11 13 15 18
15 15 16 15 14 14 15 15 14 13 13 13 13 12 12 13 13 14 14 12 11 10 10 11 10 8 6 6 6 6 6 5 5 4 4 4 3 4 6 7 4 1 1 3 3 3 3 1 5 7 4 3 3 4 5 6 6 7 9 9 11 12 11 10 11 12 12 12 11 10 10 10 8 8 9 9 9 9 10 10 11 11 13 15 17
15 15 15 16 16 14 14 14 14 14 13 13 13 12 12 12 12 12 13 12 11 11 10 10 11 10 8 8 8 7 7 6 5 4 5 6 5 3 2 4 4 2 1 0 3 4 6 8 4 1 3 5 5 7 7 6 7 8 8 9 11 12 12 11 12 13 14 14 13 11 11 10 9 9 9 9 9 10 10 10 11 12 13 15 17
14 14 14 15 16 16 14 13 14 14 13 12 13 12 12 12 11 10 11 11 10 11 10 10 11 11 9 8 8 8 7 6 6 5 6 7 7 6 4 2 3 2 1 1 1 4 7 10 9 6 7 8 8 6 4 4 6 7 8 8 10 12 14 14 15 16 16 16 15 12 11 11 9 9 9 9 9 10 10 10 11 13 14 15 17
15 15 16 16 17 16 14 14 15 14 13 12 12 12 12 12 12 10 10 11 10 11 11 10 10 10 10 9 8 8 7 7 8 7 7 7 8 6 5 5 5 5 6 4 3 9 13 11 9 9 9 10 9 6 5 6 7 8 8 9 12 14 17 17 17 17 17 17 15 13 12 12 10 10 10 10 10 10 11 11 11 13 15 16 18
16 15 17 18 18 18 16 16 16 14 14 13 13 13 13 13 13 11 10 11 12 12 12 11 11 11 10 11 11 10 9 9 11 10 7 6 8 7 6 7 7 8 9 8 6 11 15 13 10 10 9 9 10 9 8 7 7 8 10 12 13 14 15 17 17 15 14 15 15 13 13 12 12 11 10 11 11 10 10 11 11 12 14 17 18
17 16 16 18 18 18 18 17 17 16 16 15 13 14 14 14 14 13 12 12 13 13 14 13 13 13 11 11 12 12 11 11 11 12 11 8 8 9 9 10 10 10 10 11 10 10 14 15 13 13 11 10 11 10 9 8 10 11 12 14 14 12 13 17 16 13 13 15 15 14 13 13 13 13 13 12 12 11 10 10 11 11 13 16 18
19 18 18 18 17 17 17 17 17 17 18 17 15 14 15 15 14 14 13 13 13 14 15 14 14 14 12 10 10 12 12 12 12 12 12 12 11 11 11 11 13 13 12 12 13 13 15 15 14 15 13 12 12 12 12 13 14 14 14 14 13 12 13 15 15 15 16 17 15 13 13 14 14 15 15 15 13 12 11 10 11 11 12 14 17
19 20 20 20 19 18 18 17 18 18 18 19 18 17 16 15 15 15 14 14 15 15 15 15 13 14 15 12 11 10 10 11 12 12 12 12 13 14 13 11 11 13 15 16 16 17 17 15 14 15 14 14 16 16 15 16 17 15 13 13 14 14 14 14 15 16 17 16 14 15 15 15 15 16 17 17 16 15 13 12 11 11 11 12 15
19 19 21 22 21 20 20 19 19 19 18 19 19 19 18 16 15 15 15 15 15 15 15 16 15 14 15 15 13 12 12 12 13 13 13 13 13 14 15 14 12 12 14 16 16 15 16 15 15 16 16 16 18 19 18 18 18 16 13 14 16 17 16 15 15 15 15 15 15 16 17 16 16 17 17 18 18 17 16 14 13 12 11 11 13
20 20 21 23 23 22 22 21 21 20 19 18 19 19 19 18 17 16 16 15 15 16 16 15 14 14 15 15 15 15 14 14 14 14 14 14 14 14 15 15 14 13 12 13 12 12 14 15 15 17 18 18 19 21 20 18 19 20 18 19 19 18 17 16 13 13 14 15 16 17 18 19 19 19 19 18 18 18 18 17 16 15 13 11 11
24 22 21 23 24 23 23 23 23 22 21 20 19 20 19 18 19 19 19 18 17 17 17 16 15 15 15 16 16 16 16 16 15 15 14 14 15 15 14 14 15 15 14 13 12 12 14 16 18 19 21 20 20 21 21 19 19 19 19 20 20 20 20 18 15 14 15 16 16 17 18 20 21 22 21 20 19 19 19 19 18 17 15 13 11
24 24 24 23 25 26 25 24 25 24 23 23 22 22 22 20 20 20 21 20 20 19 19 19 18 17 17 17 18 18 17 17 17 16 16 16 16 16 16 16 16 16 17 16 15 14 14 16 19 20 21 21 21 20 20 19 18 17 18 19 20 22 24 21 18 16 15 16 17 17 18 20 22 23 22 20 20 19 20 20 19 19 17 15 12
17 19 22 22 24 28 28 25 26 26 26 26 25 25 25 25 24 23 22 22 22 21 20 20 20 20 19 19 20 20 19 19 18 18 18 18 19 19 19 18 17 17 18 18 18 17 16 16 17 17 17 19 20 20 19 18 17 19 22 23 23 25 25 23 19 17 16 17 18 18 19 20 21 21 21 21 21 21 21 21 21 21 19 16 14
12 13 16 17 17 24 30 29 27 28 28 27 27 26 27 27 27 26 25 23 23 23 23 21 21 21 21 20 20 20 20 21 21 21 20 20 20 21 20 19 19 19 19 20 20 20 20 19 19 18 17 18 20 19 18 19 19 21 25 25 23 23 23 21 19 19 19 19 19 21 23 22 20 21 22 23 24 24 24 23 23 22 20 17 15
13 13 14 16 15 17 26 32 31 29 30 30 28 28 28 28 29 29 29 27 25 24 25 24 23 23 22 22 21 21 21 21 22 22 23 23 23 23 22 22 22 21 21 22 22 22 21 21 21 20 18 20 22 21 21 22 22 22 24 23 19 16 15 15 15 16 17 16 17 21 25 24 22 22 23 24 24 25 25 24 23 23 21 18 16
16 16 16 18 19 16 18 27 34 33 32 31 30 29 29 28 29 30 31 30 28 27 26 26 26 25 24 23 23 22 22 21 21 22 25 27 27 27 26 25 25 24 24 24 23 23 22 21 21 21 21 23 24 24 23 23 21 20 21 20 17 14 14 13 14 16 18 19 19 22 26 27 24 23 25 27 26 25 25 23 22 24 22 19 17
15 18 19 21 23 21 16 17 25 30 33 33 31 30 29 29 30 31 31 32 31 30 28 27 28 28 27 27 25 25 24 23 22 22 23 25 27 29 30 29 28 28 27 27 26 25 25 24 23 24 25 25 25 27 27 24 22 22 22 22 21 20 19 18 19 23 26 25 22 21 24 26 25 25 28 28 26 24 23 21 21 22 21 20 18
12 17 20 21 23 24 20 14 13 17 23 28 31 32 31 30 30 32 33 33 33 33 31 30 29 29 29 29 28 28 27 26 25 24 23 22 22 25 29 32 32 31 30 30 30 29 29 29 28 29 30 30 30 31 30 27 24 23 23 23 23 22 23 24 26 29 30 29 24 19 20 26 28 28 28 26 23 23 22 20 20 19 17 18 19
9 12 15 18 21 22 21 18 15 13 14 18 24 29 33 33 33 33 35 35 33 33 33 32 31 30 30 30 30 30 29 28 28 27 26 25 23 22 24 28 31 33 34 33 32 32 32 33 33 34 34 35 35 36 35 33 31 29 28 27 26 24 26 28 29 30 32 31 27 20 20 28 29 27 27 26 24 24 23 20 19 18 16 17 18
7 8 10 13 17 20 20 19 19 19 17 16 17 20 25 29 31 33 36 37 35 33 33 34 33 32 31 31 31 31 31 30 29 28 27 27 27 26 25 26 27 30 32 33 32 33 33 33 34 34 34 35 35 36 37 37 36 37 35 32 29 28 27 27 27 29 31 32 29 24 23 27 29 26 26 26 25 25 24 22 20 19 17 17 18
7 7 7 9 12 15 17 18 19 21 22 21 19 18 19 21 23 26 31 35 37 36 35 35 35 35 33 33 32 32 32 32 31 30 28 27 28 29 29 28 28 29 31 31 31 32 33 33 33 33 32 31 30 30 32 32 34 36 34 31 31 31 26 21 22 26 29 30 31 26 22 25 28 27 27 29 28 26 25 23 22 20 19 18 19
10 9 8 9 9 10 12 14 16 19 22 23 23 22 22 21 21 22 24 28 33 36 37 36 36 36 36 35 34 33 33 32 31 30 29 29 29 30 30 29 29 30 32 32 30 30 31 31 31 30 29 28 28 29 30 29 30 32 34 34 33 30 24 20 22 25 26 31 35 28 21 25 28 27 26 25 23 24 25 23 22 21 20 20 20
13 11 11 11 11 10 10 12 14 17 20 22 23 24 24 24 23 23 23 25 28 32 35 36 36 36 37 38 37 36 35 34 33 31 30 30 31 32 33 31 30 33 35 33 30 30 29 29 29 29 29 29 29 29 29 29 28 30 33 36 35 31 27 25 26 21 15 24 35 29 20 24 27 25 23 18 12 15 20 22 22 22 22 22 23
Wind_Direction
152 152 153 152 152 150 146 149 154 156 154 147 145 146 147 152 162 165 162 166 174 188 197 187 181 172 159 164 169 165 166 173 171 165 169 168 166 166 168 173 172 171 174 181 185 184 183 180 182 188 189 194 200 201 205 215 223 221 226 253 272 283 293 304 313 329 327 323 327 329 328 327 326 323 321 319 315 313 310 313 314 313 315 316 315
158 156 159 159 160 158 154 153 153 157 155 149 143 137 137 143 152 161 165 174 184 192 198 186 178 172 169 174 174 171 170 178 181 167 158 159 165 165 168 174 176 179 183 187 190 188 187 185 191 197 199 202 207 213 218 225 231 236 250 260 263 276 294 303 312 323 320 318 321 322 322 325 323 321 325 327 324 321 321 319 310 305 305 303 301
159 156 161 162 161 160 163 162 157 159 157 149 138 130 135 138 136 146 158 168 171 162 147 159 168 169 177 181 175 172 173 180 178 158 146 145 156 164 167 170 174 178 182 189 193 193 189 192 204 210 214 217 218 224 229 232 236 246 258 262 269 282 292 300 311 314 312 314 316 318 319 320 322 325 331 333 332 332 335 334 328 322 315 307 304
156 153 156 156 155 159 166 163 155 158 158 148 138 132 134 131 128 133 142 146 148 142 124 143 165 169 180 185 183 181 178 179 176 163 143 127 142 160 164 167 169 173 178 186 193 196 198 203 214 217 223 229 229 233 237 237 241 252 260 264 274 284 288 297 307 306 306 314 320 324 330 332 335 339 340 340 338 339 339 337 336 333 327 321 317
151 148 151 151 151 155 159 155 153 157 154 147 141 138 137 129 124 126 132 134 134 132 119 133 158 163 172 179 187 194 188 183 182 177 157 133 142 145 149 158 162 168 170 177 189 196 203 211 215 219 227 232 234 238 243 248 252 259 267 272 275 281 288 297 303 308 316 327 335 344 349 351 353 350 347 346 343 342 338 335 334 331 329 325 321
148 144 148 152 151 150 152 150 149 152 150 147 145 143 149 146 127 129 139 138 132 128 125 137 153 156 159 165 181 191 194 195 189 185 177 162 157 143 136 141 139 145 150 154 174 191 202 210 214 217 223 229 234 239 245 255 259 265 276 278 283 292 297 303 313 326 337 346 352 356 357 356 355 351 348 346 344 341 337 335 333 330 328 323 320
150 146 147 151 151 148 149 147 143 148 149 147 148 146 151 154 135 133 138 139 140 138 148 162 158 157 159 162 174 171 173 185 187 188 188 180 177 164 148 144 142 147 155 148 147 171 189 202 213 216 219 226 232 238 244 253 259 263 275 280 290 301 306 314 330 341 346 352 354 355 356 353 350 348 346 343 340 335 331 328 325 322 319 315 313
159 157 154 148 145 144 144 146 144 147 150 151 154 150 145 149 150 135 126 127 134 135 152 172 173 167 162 162 166 158 157 169 177 184 190 194 199 186 172 171 173 179 182 170 144 130 135 158 190 204 211 218 223 232 238 244 257 264 270 287 301 311 323 334 342 347 351 352 352 352 350 346 343 339 335 332 326 322 318 314 312 309 306 304 302
159 161 161 152 143 142 144 150 153 149 149 155 161 161 148 146 157 150 126 125 122 123 157 174 178 174 171 168 165 164 171 176 176 180 189 198 202 195 194 202 202 196 187 182 175 146 126 128 132 145 161 168 181 193 208 215 240 305 329 346 350 348 346 354 354 356 357 352 347 343 337 332 328 326 322 317 314 311 309 306 304 302 301 299 297
156 154 158 159 154 153 156 159 162 157 153 159 165 165 149 141 160 157 124 124 120 163 193 190 191 186 182 179 176 175 180 180 179 181 187 192 198 198 203 208 203 199 196 193 194 185 173 183 142 118 108 95 92 90 80 67 63 55 44 35 27 20 9 8 4 359 351 340 333 325 322 321 318 316 314 311 310 308 307 306 305 304 303 301 300
158 150 152 163 165 161 163 163 162 156 151 158 163 166 149 136 160 160 131 116 115 172 194 197 196 190 183 176 181 184 181 185 190 195 193 193 198 201 205 209 203 203 207 205 199 193 193 216 197 143 92 76 76 73 68 62 54 48 45 39 32 28 19 11 357 345 333 322 320 318 317 316 315 314 313 312 312 311 312 312 311 310 308 307 306
159 154 154 162 165 161 162 165 160 148 147 159 158 164 158 144 145 158 161 141 127 159 166 134 140 160 168 164 177 191 193 201 207 208 201 193 192 199 205 203 202 205 209 208 197 182 174 184 191 173 88 42 47 53 50 50 45 37 35 33 28 23 8 353 335 326 322 318 318 318 318 318 317 318 318 319 320 321 322 321 319 317 317 317 317
163 158 157 160 164 165 166 168 162 150 160 175 167 161 156 156 165 170 176 176 167 161 147 132 135 149 166 171 184 200 208 218 220 217 213 201 191 195 202 200 197 201 209 212 200 181 168 172 164 158 74 355 341 342 2 23 38 34 27 24 15 5 347 333 326 322 322 323 323 323 323 323 324 327 329 331 332 331 329 325 323 323 324 325 325
169 162 160 164 168 170 171 168 164 162 170 175 172 165 156 161 171 167 163 173 170 148 154 179 186 185 180 181 199 212 214 220 227 227 223 213 200 195 199 200 194 193 203 207 201 197 191 179 173 154 2 340 318 300 299 311 14 29 19 13 360 347 339 330 326 326 327 328 329 330 331 333 336 338 339 338 335 332 328 324 324 326 328 328 327
173 166 163 169 174 173 171 169 174 179 168 162 169 170 164 168 174 168 165 167 148 135 165 224 194 180 165 181 215 216 220 229 235 239 238 223 204 192 195 194 180 181 191 195 204 208 191 178 183 147 66 348 319 295 286 287 300 13 8 358 345 338 336 334 331 331 333 335 338 341 343 343 343 342 340 337 334 332 328 327 329 330 330 329 329
176 171 165 171 182 178 171 173 184 183 165 163 172 171 168 175 184 190 186 182 171 144 132 158 156 150 245 234 232 119 184 252 236 233 239 219 194 179 187 188 172 169 179 187 199 201 182 172 155 126 119 90 341 303 288 287 283 336 352 339 334 336 338 338 339 341 344 348 349 349 347 344 343 342 340 337 336 334 332 333 334 333 333 334 334
176 171 168 176 184 176 173 177 184 179 167 171 174 168 170 178 189 197 193 204 198 169 135 139 159 102 70 91 13 95 246 297 254 164 167 191 185 183 190 189 181 182 186 181 182 187 189 179 146 122 105 100 57 335 296 293 305 337 344 336 335 340 345 350 355 359 358 356 353 348 344 343 343 342 339 336 335 335 336 337 336 336 338 340 339
175 169 175 185 179 172 181 187 183 174 168 170 168 168 174 179 187 188 184 209 186 165 153 141 163 143 65 14 37 70 316 333 357 67 68 138 169 182 189 185 184 190 186 177 178 192 204 189 150 129 112 96 56 2 299 275 337 337 338 337 338 344 357 9 13 12 4 355 349 345 343 342 339 337 334 334 337 339 339 338 340 343 344 343 341
178 175 187 190 178 175 188 192 180 169 166 171 172 176 181 184 189 186 199 205 146 144 164 173 179 132 35 14 80 62 21 20 51 52 40 92 155 175 185 184 182 184 180 180 191 199 200 193 174 137 141 117 44 4 312 303 343 339 341 343 348 3 19 29 23 10 358 349 346 345 343 339 334 334 335 340 342 339 339 342 348 350 348 346 343
182 184 198 192 180 181 185 186 179 170 171 179 179 179 182 185 186 189 207 200 147 118 146 140 188 110 71 77 94 39 21 35 56 72 90 51 256 186 186 182 177 186 184 183 195 197 197 203 196 148 133 120 112 313 304 322 353 359 0 7 21 23 21 22 13 3 353 347 345 343 340 337 334 337 342 346 345 340 343 351 356 355 351 348 344
183 189 201 189 182 185 180 178 181 177 180 183 178 178 184 185 184 194 201 190 171 140 101 56 79 125 99 86 69 17 12 37 49 30 56 143 321 332 186 180 179 194 197 196 194 184 188 202 191 161 145 135 158 239 304 305 359 12 12 28 39 32 22 12 7 5 355 348 344 342 341 342 341 342 346 346 344 345 352 358 358 357 353 348 346
185 189 196 190 186 186 179 178 184 190 187 177 176 183 184 183 188 202 199 184 174 154 83 52 91 105 110 115 99 46 2 359 7 351 353 69 335 329 309 182 166 159 186 199 189 157 148 164 163 159 156 157 176 279 313 305 340 4 8 16 25 26 26 15 11 9 360 352 348 346 345 346 345 344 346 347 347 353 0 360 357 355 352 349 348
187 188 193 195 190 187 184 182 187 198 190 175 186 198 187 184 191 194 189 181 172 158 134 111 123 107 106 152 156 138 52 320 328 337 1 38 359 306 344 353 86 117 147 176 172 160 153 152 159 159 158 177 283 294 293 303 310 343 3 8 5 9 16 16 16 13 5 0 355 352 349 347 347 346 348 351 353 358 1 358 355 352 351 351 349
189 192 194 193 191 187 185 189 194 201 194 186 199 205 195 193 192 188 187 185 180 179 178 165 166 172 190 192 196 213 235 299 324 324 319 351 343 310 341 353 4 124 146 157 156 172 163 157 171 175 193 259 302 279 260 277 281 315 356 1 341 349 359 9 14 15 11 8 3 357 350 345 347 346 350 354 355 357 357 355 353 350 351 352 351
193 197 196 193 194 186 182 199 209 201 196 197 199 198 199 198 191 190 193 192 191 197 194 185 194 218 267 262 270 271 261 273 303 309 305 303 316 317 325 349 357 348 185 179 175 186 169 166 187 212 247 269 285 257 253 267 246 262 343 353 336 337 346 357 4 7 8 11 9 2 354 348 346 345 348 354 355 355 353 350 350 349 351 352 353
200 203 199 193 198 189 182 202 213 200 198 203 199 195 201 203 198 199 199 197 199 202 202 197 203 238 274 266 283 284 289 324 293 271 292 286 283 300 302 341 353 351 251 207 208 208 183 180 203 227 238 280 295 252 252 270 250 248 299 335 337 333 336 341 347 350 350 359 5 5 358 350 344 341 345 354 357 356 352 348 347 349 352 353 353
207 208 203 197 202 196 188 198 205 199 198 199 200 199 201 202 200 202 201 202 206 205 205 204 203 233 271 266 275 269 333 3 346 319 340 305 304 11 24 34 4 346 344 263 234 232 199 184 200 226 232 276 296 228 235 269 272 264 286 323 339 332 324 323 329 333 332 337 349 359 359 352 346 342 342 350 357 358 354 350 347 349 353 353 353
210 212 210 205 208 202 195 198 201 203 201 198 200 203 203 198 195 197 198 205 215 214 209 207 203 213 237 258 277 268 279 347 356 13 41 51 52 36 32 43 45 350 341 327 273 254 220 187 198 215 232 281 298 230 224 253 269 271 277 306 334 331 316 307 311 319 321 321 329 344 353 351 348 346 344 346 352 357 357 354 350 350 353 353 353
212 214 213 211 215 209 200 201 202 205 207 201 199 204 207 202 198 201 199 204 219 223 217 210 207 216 231 240 261 269 267 294 327 344 2 3 14 32 27 30 40 55 13 337 316 309 346 22 196 206 233 290 303 287 264 259 269 271 266 289 327 331 317 302 298 307 312 311 314 327 341 346 350 351 350 347 347 351 355 355 353 353 353 354 354
210 209 210 212 216 211 204 205 207 208 210 206 201 203 210 208 206 208 202 201 218 223 219 214 211 222 235 233 243 260 265 274 297 313 310 316 325 320 356 13 354 353 97 317 302 315 359 14 16 295 305 310 305 301 291 276 274 271 265 288 322 330 321 306 296 300 306 304 305 314 326 336 346 353 353 352 350 350 350 352 354 356 356 354 353
208 205 206 210 211 207 204 207 212 214 214 212 207 203 210 212 210 214 206 202 217 222 215 216 216 224 236 237 241 245 248 260 272 295 297 288 293 285 255 270 323 311 309 355 297 289 324 352 354 343 339 332 323 315 309 301 295 286 278 297 322 326 319 309 299 297 300 299 299 304 314 322 337 348 349 350 351 351 351 349 352 357 358 355 353
210 212 209 206 206 205 204 208 215 219 215 213 213 208 212 216 211 217 214 204 214 216 213 221 221 221 232 239 246 240 230 238 250 270 292 274 268 272 246 245 276 279 282 296 266 279 300 321 325 318 331 339 332 326 325 320 313 305 297 305 319 319 315 310 303 297 296 297 296 297 302 308 323 338 339 340 343 346 352 351 351 357 359 357 353
209 214 213 206 205 207 208 211 216 221 216 214 218 214 214 217 213 218 222 215 218 216 214 223 221 224 238 238 239 243 240 242 244 253 275 267 252 261 252 245 264 271 269 271 270 282 294 304 309 306 315 326 322 321 321 311 302 306 306 307 312 314 314 315 312 303 296 297 296 295 296 299 311 322 327 331 332 334 345 351 352 356 358 357 354
209 212 214 209 207 210 212 214 216 220 222 222 223 218 216 219 215 216 224 225 224 219 218 223 221 226 243 243 236 237 240 246 247 248 255 257 255 264 258 246 249 254 255 259 260 267 283 296 306 306 304 307 308 311 312 304 301 305 305 304 304 305 311 315 317 315 312 308 302 296 293 296 305 312 315 318 320 322 332 343 349 353 355 355 353
211 211 214 211 212 215 215 216 218 221 225 226 224 220 219 224 222 217 223 231 228 221 221 225 224 226 237 245 238 230 231 241 248 250 250 249 253 263 266 257 250 247 248 252 253 253 265 282 294 296 295 293 291 293 295 296 300 302 301 303 304 305 307 308 308 311 315 314 310 301 296 297 302 306 309 310 309 310 316 328 339 345 349 351 350
215 213 215 215 215 218 218 220 222 225 228 227 224 222 223 229 231 223 222 232 234 229 226 228 228 229 233 238 238 232 233 239 246 252 251 246 249 258 268 271 266 261 254 251 256 256 254 262 279 287 291 290 288 291 294 298 303 305 300 299 300 300 299 298 297 300 304 307 308 306 301 297 300 304 305 305 304 303 305 312 321 330 337 342 346
222 217 216 217 216 216 218 222 225 227 231 229 224 223 225 230 234 231 228 233 237 235 233 232 231 231 232 235 237 236 237 240 244 251 255 250 249 259 266 268 273 278 265 254 256 255 246 252 271 282 288 293 294 296 299 301 304 304 297 291 291 291 292 293 290 286 288 291 298 303 301 296 299 303 303 302 300 299 299 300 304 312 321 329 339
224 224 220 217 217 218 219 221 225 228 231 231 227 224 225 227 231 235 235 235 238 238 237 236 233 233 234 235 237 237 236 237 240 247 254 252 248 254 262 265 268 275 272 260 255 251 247 255 269 279 286 291 294 296 300 302 301 299 294 290 287 286 289 293 287 275 277 287 295 300 299 298 300 301 299 297 296 295 295 295 295 299 304 310 325
218 224 225 220 218 220 221 221 223 227 228 230 231 228 226 226 230 234 236 235 237 239 238 237 237 237 238 238 240 241 240 238 238 241 247 251 250 251 255 261 265 269 273 273 267 261 262 265 270 275 281 286 288 291 297 304 301 294 288 284 283 286 289 291 286 275 275 286 295 299 300 300 299 298 295 291 291 292 292 291 290 291 293 295 305
213 218 223 223 220 219 222 223 224 225 227 228 231 233 231 230 231 233 235 235 236 239 237 237 238 239 240 240 241 242 243 242 242 240 240 244 247 250 252 255 259 261 266 270 271 270 268 268 267 269 274 278 280 284 290 293 290 286 285 282 283 288 291 290 285 275 274 284 290 293 299 302 300 298 295 290 290 292 291 290 288 286 285 283 288
212 218 223 226 224 219 219 223 224 224 225 227 230 233 234 233 232 234 236 235 234 236 237 237 238 239 240 241 242 244 244 244 243 242 242 242 241 243 247 249 251 253 257 261 265 266 266 266 267 270 272 272 274 278 282 283 282 285 290 288 286 288 289 286 280 272 274 283 284 286 297 302 299 297 295 292 294 296 293 291 288 284 280 276 275
221 225 231 236 237 225 218 218 222 222 222 226 231 233 235 235 233 232 235 237 236 234 236 238 240 241 241 241 243 246 249 249 246 244 245 245 244 243 243 243 243 245 247 250 253 256 258 260 264 268 270 271 273 274 275 279 284 287 290 289 288 289 287 281 275 271 273 277 279 288 300 303 298 294 292 292 295 298 297 295 294 289 280 269 266
231 230 236 247 256 243 223 217 218 219 221 225 229 232 235 236 235 233 233 235 236 236 235 236 239 241 242 242 243 245 248 249 249 248 248 247 247 247 245 242 241 240 241 243 246 248 250 251 256 259 262 266 271 273 273 277 281 283 287 288 287 289 287 277 272 272 275 279 285 294 300 301 297 292 288 289 293 297 298 299 299 294 281 266 260
232 230 232 241 250 256 241 224 218 218 220 224 227 230 233 235 235 235 234 233 234 236 236 235 236 238 240 242 244 245 247 249 250 250 250 249 249 249 248 246 243 241 241 242 243 245 245 246 249 252 254 259 264 268 270 272 275 278 285 287 285 286 286 277 272 277 286 295 296 294 294 295 295 291 289 291 294 295 297 297 297 294 282 265 257
237 232 228 233 237 243 250 237 223 221 222 224 227 228 230 234 235 235 235 234 233 234 236 237 236 236 236 238 240 244 246 248 251 254 256 255 253 251 249 249 247 244 244 244 246 247 247 248 248 249 253 255 258 262 265 266 269 272 276 278 279 282 284 282 281 286 292 296 294 288 287 289 290 288 289 294 296 294 293 292 292 292 281 263 255
249 237 230 231 231 233 241 247 236 226 224 225 228 229 229 233 235 235 235 234 234 234 236 238 239 238 238 237 238 241 243 244 247 253 259 262 260 256 252 249 248 248 246 245 246 248 248 249 249 251 255 256 256 260 263 263 262 263 266 270 275 279 283 284 286 288 290 290 286 281 279 281 285 286 287 292 296 294 290 287 287 289 280 262 254
269 256 241 233 231 233 241 248 248 242 231 225 226 228 231 233 235 236 234 232 233 235 235 236 239 240 242 242 241 241 242 243 244 247 253 257 259 260 257 253 252 251 250 249 249 249 250 251 252 254 257 259 260 262 264 263 260 260 262 266 272 279 283 285 285 285 285 283 278 271 270 278 283 282 283 290 294 291 289 284 281 283 276 262 255
294 277 257 241 235 235 240 245 248 249 248 242 234 229 229 232 236 238 236 233 232 234 236 237 237 239 242 244 245 245 244 245 246 247 248 250 252 254 255 255 256 254 254 255 255 254 255 255 257 259 261 264 266 267 268 267 265 265 264 265 270 275 279 282 282 280 280 280 278 269 264 274 281 278 279 287 288 284 283 278 274 276 272 261 254
319 303 284 265 254 249 248 250 252 252 250 251 254 251 243 238 239 242 242 239 236 235 236 238 238 239 240 242 245 247 248 248 249 249 249 248 248 249 249 251 253 254 255 257 257 257 257 257 260 263 266 268 269 269 270 269 269 268 264 262 267 269 270 273 274 275 277 279 280 275 261 266 276 277 278 284 282 277 277 273 268 269 266 257 251
325 316 303 288 277 271 268 265 264 263 257 252 254 258 259 255 251 249 248 248 244 240 239 239 240 240 241 242 244 246 248 250 250 251 250 248 247 248 248 248 247 248 251 253 253 254 256 257 259 262 265 267 268 267 267 267 268 267 261 258 262 264 261 260 263 270 277 278 279 277 260 260 271 274 275 280 277 271 270 266 263 262 258 252 246
321 317 313 306 296 287 280 274 271 271 268 262 258 258 259 261 262 261 258 255 252 249 245 243 243 243 243 243 244 246 249 251 253 253 252 250 249 249 249 247 245 247 250 249 246 248 251 253 256 259 261 265 267 268 269 269 268 265 261 260 261 257 254 255 258 263 272 276 277 276 264 264 271 271 271 273 269 265 262 257 256 258 255 250 246
Height
860 861 863 864 865 865 866 866 867 867 868 868 869 869 869 870 871 871 871 871 871 872 872 872 873 873 874 874 875 875 875 876 876 876 876 876 877 877 877 877 878 878 878 878 878 878 878 878 878 877 877 877 877 876 876 876 875 875 875 875 875 875 874 873 873 872 872 872 871 870 870 869 868 868 867 867 866 866 865 865 864 863 863 862 861
861 862 863 864 865 866 866 867 868 868 869 869 869 870 870 871 871 871 871 871 871 871 871 872 872 873 874 874 874 875 875 875 876 876 876 877 877 877 877 878 878 878 878 878 878 878 878 878 877 877 877 876 876 876 875 875 875 875 875 875 875 874 874 873 873 872 872 871 871 870 869 869 868 867 867 866 866 865 864 864 863 863 862 862 861
862 863 863 864 865 866 867 868 868 869 870 870 870 870 871 871 871 871 871 871 871 871 871 872 872 873 873 873 874 875 875 875 876 876 876 877 877 877 877 878 878 878 878 878 878 878 878 878 877 877 876 876 876 875 875 875 875 875 875 875 874 874 874 873 873 872 872 871 870 869 869 868 868 867 866 866 865 865 864 863 863 862 861 861 860
862 863 863 864 865 866 867 868 868 869 870 870 870 871 871 872 871 871 871 871 871 871 871 872 872 873 873 873 874 874 875 875 876 876 876 877 877 878 877 878 878 878 879 878 878 878 877 877 877 876 876 875 875 875 875 875 875 875 875 875 874 874 874 873 873 872 871 870 870 869 868 867 867 866 866 865 865 864 863 863 862 861 861 860 859
862 863 863 864 865 866 867 867 868 869 870 870 870 871 871 871 871 871 871 871 871 871 872 872 873 873 874 874 874 874 875 875 876 876 876 877 877 878 878 878 878 878 878 878 878 877 877 877 876 876 875 875 875 875 875 875 875 875 875 874 874 874 873 873 872 871 871 870 869 868 868 867 867 866 865 865 864 864 863 862 862 861 860 860 859
862 863 863 864 865 866 867 867 868 869 869 870 870 871 871 871 871 871 871 871 871 871 872 872 873 873 874 874 875 875 875 875 876 876 876 877 878 878 878 878 878 878 878 878 877 877 876 876 876 875 875 875 875 875 875 875 875 875 874 874 874 873 873 872 872 871 870 870 869 868 868 867 866 866 865 865 864 863 862 862 861 860 860 859 858
863 863 863 864 865 866 867 867 868 868 869 870 870 871 871 871 871 871 871 871 872 871 872 873 873 874 874 874 875 875 875 876 876 876 877 877 878 878 878 878 878 878 878 877 877 876 876 875 875 875 875 875 875 875 875 875 875 874 874 874 874 873 872 872 871 871 870 869 869 868 868 867 866 866 865 864 863 863 862 861 860 859 859 858 857
863 864 864 865 866 866 866 867 868 868 869 870 870 871 871 871 871 871 872 872 871 871 872 873 873 874 874 875 875 876 876 876 876 876 877 877 877 878 878 878 878 877 877 877 877 876 876 875 875 875 874 875 874 875 874 874 874 874 874 873 873 873 872 872 871 870 870 869 869 868 868 867 866 865 865 864 863 862 861 860 859 858 858 857 856
862 864 864 865 866 866 867 867 868 868 869 870 870 871 871 872 872 872 872 872 871 871 872 873 873 874 874 875 875 876 876 876 877 877 877 877 877 878 877 877 877 877 877 877 876 876 876 875 875 875 875 875 874 874 874 874 874 874 873 873 873 872 872 871 871 870 870 869 869 868 867 866 866 865 864 863 862 861 860 859 858 857 856 855 855
861 863 864 865 866 866 867 867 868 869 869 870 870 871 872 872 872 872 872 872 872 872 872 873 874 874 874 875 875 876 875 876 876 876 876 876 877 877 877 876 876 876 876 876 876 876 875 875 875 875 875 875 875 874 874 874 874 874 873 873 872 872 872 871 871 870 870 869 868 868 867 866 865 864 863 862 861 860 859 858 857 855 855 854 853
861 862 864 865 866 867 867 868 868 869 870 870 870 871 871 872 872 872 872 872 872 873 873 873 874 874 874 875 875 875 875 875 875 875 876 876 876 876 876 876 875 875 876 876 876 875 875 875 875 875 875 875 875 874 874 874 874 873 873 873 872 872 871 871 870 870 869 869 868 867 866 865 864 863 862 861 860 859 857 856 855 854 853 852 851
862 863 864 865 865 866 867 868 869 870 870 870 871 871 872 872 872 872 872 873 873 873 873 874 873 874 874 875 875 875 875 875 875 875 875 876 876 876 876 876 875 875 875 875 875 875 875 876 875 875 876 875 875 875 874 874 874 873 873 873 872 872 871 871 870 870 869 868 867 866 865 864 863 862 861 860 859 857 856 855 854 853 851 850 849
863 864 865 866 866 867 868 868 869 870 871 871 872 872 873 873 873 873 874 873 874 874 873 874 874 874 874 875 874 874 875 875 874 874 875 875 875 875 875 875 875 875 875 875 875 875 875 875 876 876 875 875 875 875 874 874 874 873 873 873 872 871 871 870 870 869 868 868 867 866 865 863 862 861 860 859 858 856 855 854 852 851 850 849 848
864 864 865 866 867 868 868 869 870 871 872 872 873 874 874 874 874 874 875 874 874 874 874 874 874 874 874 874 874 874 874 874 874 874 874 875 875 875 875 874 874 874 874 875 875 875 875 875 875 875 875 875 874 874 874 874 873 873 873 872 872 871 871 870 869 869 868 867 866 865 864 862 861 860 859 858 857 855 854 853 851 850 849 848 847
864 865 866 867 867 868 869 870 871 871 872 873 873 874 874 874 875 875 875 875 875 874 874 874 874 873 874 875 875 875 875 874 872 873 872 873 874 874 874 874 874 874 874 875 875 875 875 875 875 875 875 874 874 873 873 873 873 873 872 872 871 871 870 869 869 868 867 866 865 864 863 862 860 859 858 857 856 855 853 852 850 849 848 847 846
864 865 866 867 868 868 869 870 871 872 873 873 874 874 875 875 875 875 875 875 875 875 875 874 874 873 874 875 874 876 878 875 871 871 871 872 873 873 873 873 873 874 875 875 875 875 875 875 875 874 874 874 873 873 872 872 873 872 872 871 871 870 869 868 868 867 866 865 864 863 862 861 860 858 857 856 855 854 852 851 850 848 847 846 845
864 865 866 867 868 868 869 870 871 872 873 873 874 874 875 875 875 875 875 875 875 875 875 874 874 874 873 874 875 878 879 873 871 871 869 870 872 873 873 873 873 874 875 875 875 875 875 875 875 874 874 873 873 872 872 872 872 872 872 871 870 869 868 868 867 866 865 865 864 863 861 860 859 858 856 855 854 853 852 850 849 848 846 845 844
864 865 866 867 868 868 869 870 870 871 872 873 874 874 875 875 875 875 875 875 875 875 875 874 874 874 873 873 874 876 875 871 872 873 870 869 871 872 872 872 873 874 874 874 874 874 874 875 874 874 873 873 873 872 872 872 872 872 871 871 870 869 868 867 866 866 865 864 863 862 861 860 858 857 856 855 854 852 851 850 848 847 846 844 843
865 865 866 866 867 868 869 870 870 871 872 873 873 874 874 875 875 875 875 875 875 875 874 874 874 874 873 873 873 873 873 872 872 874 874 873 871 871 872 872 873 873 874 874 873 873 873 874 874 874 873 873 872 872 872 872 872 872 871 870 869 869 868 867 866 865 865 864 863 861 860 859 858 857 856 854 853 852 851 849 848 847 845 844 842
865 866 866 867 867 868 869 870 870 871 872 873 873 874 874 875 875 875 875 875 875 875 875 875 874 874 874 873 873 873 873 872 872 873 876 877 874 872 872 873 873 873 873 873 873 872 872 873 873 873 873 873 873 873 872 872 872 871 871 870 869 869 868 867 866 865 864 863 862 861 860 859 858 856 855 854 853 852 850 849 848 846 845 843 841
865 866 866 867 867 868 869 870 870 871 872 872 873 873 874 874 875 875 875 875 875 875 875 875 875 875 874 874 874 873 873 872 873 873 874 876 876 873 872 873 873 873 873 873 873 872 872 872 873 873 873 873 873 873 873 872 872 871 870 870 869 869 868 867 866 865 864 863 862 861 860 858 857 856 855 854 852 851 850 849 847 846 844 843 841
865 865 866 866 867 868 869 869 870 871 872 872 873 873 874 874 874 875 875 875 875 875 875 876 875 875 875 875 874 874 874 873 873 874 873 875 876 874 872 872 872 872 872 873 873 873 872 872 873 874 874 873 873 873 872 872 872 871 870 870 869 869 868 867 866 865 864 863 862 861 859 858 857 856 855 854 852 851 850 849 847 846 844 842 841
864 865 866 866 867 868 869 870 870 871 872 872 873 873 874 874 874 875 875 875 875 875 875 875 875 875 875 875 875 875 875 875 874 874 874 874 875 874 872 872 871 871 872 873 873 873 873 873 873 873 873 873 873 872 872 872 872 871 870 870 869 869 868 867 866 865 864 863 862 861 859 858 857 856 855 853 852 851 850 849 847 846 844 842 840
864 865 866 866 867 868 869 870 870 871 871 872 872 873 873 874 874 874 875 875 875 875 875 875 875 875 876 876 876 876 875 875 875 875 874 874 875 874 873 872 872 871 872 872 873 873 873 873 873 873 873 873 873 872 872 872 871 871 870 870 869 869 868 867 866 865 864 863 862 861 859 858 857 856 855 853 852 851 850 849 847 846 844 842 840
863 864 865 866 867 868 868 869 870 871 871 872 872 873 873 873 874 874 874 875 875 875 875 875 875 876 876 876 877 877 876 876 875 875 875 874 874 874 874 874 873 872 872 872 872 873 873 872 873 873 873 873 873 872 871 871 871 871 871 870 869 869 868 867 866 865 864 863 862 861 859 858 857 856 855 854 852 851 850 849 847 846 844 842 840
863 864 865 866 867 867 868 869 870 870 871 872 872 873 873 873 873 874 874 874 875 875 875 875 875 876 876 876 876 877 877 876 876 875 875 875 874 874 874 875 874 873 872 872 872 873 873 873 873 872 872 872 872 872 871 871 870 870 870 870 869 868 867 866 866 865 864 863 862 861 860 858 857 856 855 854 853 851 850 849 847 846 844 842 840
863 864 865 866 866 867 868 869 869 870 871 871 872 872 872 873 873 873 874 874 874 875 875 875 875 875 875 876 876 876 876 876 876 875 875 875 875 875 875 875 876 875 873 873 872 872 873 873 872 872 872 872 872 872 871 871 870 870 870 869 869 868 867 866 865 865 864 863 862 861 860 859 857 856 855 854 853 851 850 849 847 846 844 842 840
863 864 865 865 866 867 868 868 869 870 870 871 871 871 872 872 872 873 873 874 874 874 874 875 875 875 875 875 875 875 876 876 876 876 875 876 876 875 875 875 878 879 877 875 873 872 873 872 872 872 873 873 872 871 871 871 870 870 870 869 869 868 867 866 865 864 863 862 862 861 860 859 857 856 855 854 853 852 850 849 847 846 844 842 840
863 864 864 865 866 867 867 868 869 869 870 871 871 871 872 872 872 873 873 873 874 874 874 874 874 874 875 875 875 875 875 875 876 876 875 876 875 875 875 875 877 879 880 880 877 873 873 873 873 873 873 872 872 871 871 871 870 870 870 869 868 867 866 866 865 864 863 862 862 861 860 858 857 856 855 854 853 852 851 849 847 846 844 842 840
862 863 864 864 865 866 867 868 868 869 869 870 871 871 871 871 872 872 872 873 873 873 873 873 873 874 874 874 875 875 875 875 875 875 875 875 875 875 876 876 876 877 878 881 879 874 873 874 873 873 873 872 872 872 871 871 870 870 870 869 868 867 866 865 864 863 863 862 861 861 859 858 857 856 855 854 853 852 851 849 848 846 844 842 840
860 862 863 864 864 865 866 867 867 868 869 869 870 870 870 871 871 872 872 872 872 872 873 873 873 873 873 873 874 874 874 874 874 874 874 874 875 875 875 875 876 876 876 878 879 875 873 874 874 874 873 873 872 872 871 870 870 870 869 869 868 867 866 864 864 863 862 861 861 860 859 858 857 855 855 854 853 852 851 849 848 846 844 842 840
859 860 861 862 863 864 865 866 867 867 868 868 869 869 870 870 871 871 871 871 872 872 872 872 872 872 872 872 873 873 873 874 873 874 874 874 874 874 875 875 875 876 875 876 877 874 873 874 874 873 873 872 872 871 871 870 870 869 869 869 868 866 865 864 863 862 861 861 860 860 859 857 857 855 854 853 852 851 850 849 848 846 844 842 840
857 858 860 860 862 863 864 865 865 866 867 867 868 868 869 870 870 870 870 870 871 871 871 871 871 871 871 871 872 872 872 872 872 873 873 873 873 873 873 874 873 874 874 874 874 873 871 872 872 872 871 871 871 871 870 870 869 869 869 868 867 866 865 863 862 861 860 860 859 859 858 857 856 855 853 853 852 851 850 849 847 846 844 842 840
855 856 858 859 860 861 862 864 864 865 865 866 867 867 868 868 869 869 869 869 870 870 870 870 870 870 870 870 870 870 871 871 871 872 872 872 872 872 872 872 872 872 873 873 873 872 871 870 870 870 870 870 870 869 869 869 869 868 868 867 866 865 864 862 861 860 860 859 858 858 857 856 855 854 853 852 851 850 849 848 847 845 844 842 840
853 854 856 857 858 859 860 862 863 863 864 864 865 866 866 867 867 868 868 868 868 868 868 869 869 869 869 869 869 869 869 870 870 870 870 870 871 871 871 871 871 871 871 871 871 871 870 869 869 869 869 869 869 868 868 868 867 867 866 866 865 864 863 862 860 859 859 858 857 857 856 855 854 853 852 851 850 849 848 848 846 845 844 842 840
851 852 854 855 856 858 858 860 861 861 862 862 863 864 864 866 866 867 867 867 867 867 867 867 867 867 867 867 868 868 868 868 868 869 869 869 869 869 870 870 870 870 869 870 870 869 869 869 868 868 868 868 867 867 867 866 866 866 865 864 864 863 862 861 860 858 858 857 856 856 855 854 853 852 851 850 849 848 847 846 846 844 843 842 840
849 850 851 852 854 855 856 857 859 860 860 861 862 862 863 864 865 865 866 866 866 866 866 866 866 866 866 866 866 866 867 867 867 867 867 867 868 867 868 868 868 868 868 868 868 868 868 868 867 867 867 867 866 866 866 865 865 864 864 863 862 861 860 860 859 857 857 856 855 854 853 852 852 851 849 848 847 847 846 845 844 843 842 841 840
847 848 849 850 851 852 853 854 856 857 858 859 860 861 862 862 863 864 864 864 865 864 864 864 864 864 864 864 864 865 865 865 865 865 865 865 865 865 865 865 866 866 866 866 866 866 866 866 865 865 865 865 864 864 864 864 863 862 862 861 860 860 859 858 857 856 855 854 853 853 852 851 850 849 848 847 846 845 844 843 843 842 841 840 839
844 846 846 847 848 849 850 851 852 854 856 857 858 859 860 860 861 862 862 862 863 863 863 863 863 863 863 863 863 863 863 863 863 863 863 863 863 863 863 863 864 864 864 864 864 864 864 864 864 863 862 863 863 862 862 862 862 861 860 859 858 857 856 856 856 854 853 853 851 851 850 849 848 847 846 845 844 843 842 842 841 840 840 839 838
841 842 843 845 845 846 847 848 849 851 852 854 855 856 857 858 859 859 860 860 860 861 861 861 861 862 861 861 861 861 861 860 860 861 861 861 861 861 861 861 862 862 861 861 862 862 862 862 861 861 861 861 860 860 860 860 860 859 858 857 856 854 854 854 853 853 852 851 850 849 849 848 846 845 844 843 842 841 841 840 839 839 838 838 837
838 840 841 842 843 843 844 845 846 847 849 850 851 852 854 855 856 857 857 858 858 858 859 859 859 860 859 859 859 859 858 858 858 858 858 858 858 858 859 859 859 859 859 859 859 860 860 859 859 859 859 858 858 858 858 858 858 857 856 855 854 852 851 851 851 851 850 849 848 847 847 846 845 844 842 841 840 839 839 838 837 837 836 836 836
837 838 840 841 841 842 841 842 843 844 845 846 847 848 849 851 852 853 854 855 855 856 856 856 857 857 857 857 857 857 857 856 856 856 856 856 856 856 856 856 856 857 857 857 857 857 857 857 857 857 857 856 856 856 856 856 856 855 854 853 852 850 849 849 848 849 848 848 847 845 844 844 843 842 841 839 838 837 836 836 835 834 834 835 834
836 837 839 840 841 841 840 839 839 840 840 841 842 844 845 847 848 849 850 851 852 852 853 853 853 854 854 854 854 854 854 854 854 854 854 854 853 853 853 853 853 854 853 854 854 854 854 854 854 854 854 853 853 853 853 853 853 853 852 851 850 849 848 847 846 846 846 846 845 843 841 841 841 840 838 838 837 835 834 833 833 832 832 832 832
832 835 837 838 839 839 839 837 836 836 836 837 838 840 841 843 845 846 847 848 848 848 849 849 849 850 850 851 851 852 852 852 852 851 851 851 850 850 851 851 851 851 851 851 851 851 851 851 851 851 851 850 850 850 850 850 850 850 850 849 848 847 847 846 845 844 844 844 844 841 839 838 839 838 836 835 835 834 832 831 831 830 830 830 831
829 830 832 834 835 836 836 836 835 834 833 834 835 836 838 839 841 842 843 844 845 845 845 845 846 846 846 847 847 847 848 848 848 848 848 848 848 848 848 848 849 849 849 849 849 849 849 848 848 848 847 847 847 846 847 847 848 848 847 847 846 845 845 844 843 842 842 842 842 840 837 835 836 836 834 832 832 832 831 830 829 828 828 828 829
827 827 828 830 832 833 834 834 834 833 833 833 833 834 835 836 837 838 839 840 841 842 843 843 843 843 843 843 843 843 843 844 844 845 845 845 845 845 846 846 846 846 846 846 846 846 846 846 845 844 844 844 843 842 843 844 844 844 844 844 844 843 843 842 841 840 839 839 840 838 835 833 833 833 831 830 830 829 828 827 827 826 826 826 826
827 827 827 827 829 831 831 831 831 830 830 831 831 832 833 833 835 835 836 837 838 838 839 840 840 840 840 840 840 840 840 840 840 840 840 841 841 842 842 842 842 842 842 842 843 843 842 842 841 840 840 840 840 839 840 840 841 841 841 841 841 841 840 839 838 837 836 836 837 837 833 830 831 831 828 827 827 826 825 825 824 824 824 824 824
827 827 826 826 826 827 828 828 827 827 826 827 828 829 830 831 832 833 833 834 835 835 835 836 837 837 838 838 837 837 837 836 837 837 837 837 837 837 837 837 837 838 837 838 838 838 838 838 837 837 837 837 837 836 836 836 837 837 838 838 839 839 838 836 835 834 833 832 833 834 831 828 828 827 825 825 825 824 822 822 822 822 821 821 822
827 826 825 825 824 825 825 824 824 823 823 823 824 825 826 828 829 830 830 831 832 832 832 833 833 833 834 834 834 834 833 833 833 834 835 835 834 833 833 832 833 833 832 833 834 834 834 834 834 834 833 833 833 833 833 833 833 834 835 835 834 835 835 834 832 830 829 829 829 830 829 826 825 825 823 822 822 821 820 820 819 819 819 819 819
827 826 825 824 824 823 822 822 822 821 820 820 821 822 823 824 825 826 827 828 828 829 829 829 830 830 830 831 831 831 830 830 831 831 832 832 831 830 829 829 828 827 826 827 828 829 829 830 830 830 830 829 829 829 829 829 830 831 831 830 830 831 831 831 829 828 827 826 825 826 827 823 822 823 822 820 819 818 817 817 817 817 817 817 817
828 827 825 823 822 821 821 820 819 819 818 818 819 819 820 821 822 823 825 826 825 825 826 826 827 827 827 828 828 828 827 827 828 828 829 829 828 827 826 826 825 822 820 822 823 823 824 824 824 825 825 825 825 825 825 826 826 827 826 825 826 827 827 826 826 827 826 823 820 823 824 821 820 821 820 819 817 815 814 814 814 814 814 814 814